Regional Weather Roundup
Issued by NWS New Orleans/Baton Rouge, LA

Home | Current Version | Previous Version | Text Only | Print | Product List | Glossary Off
Versions: 1 2 3 4 5 6 7 8 9 10 11 12 13 14 15 16 17 18 19 20 21 22 23 24 25 26 27 28 29 30 31 32 33 34 35 36 37 38 39 40 41 42 43 44 45 46 47 48 49 50

821
ASUS44 KLIX 230205
RWRLIX
NEW ORLEANS REGIONAL WEATHER ROUNDUP
NATIONAL WEATHER SERVICE NEW ORLEANS LA
900 PM CDT WED OCT 22 2014

NOTE: "FAIR" INDICATES FEW OR NO CLOUDS BELOW 12,000 FEET WITH NO
      SIGNIFICANT WEATHER AND/OR OBSTRUCTIONS TO VISIBILITY.
      SKY/WX - SKY CONDITION AND SIGNIFICANT WEATHER.
      TMP - AIR TEMPERATURE.     DP    - DEWPOINT TEMPERATURE.
      RH  - RELATIVE HUMIDITY.   PRES  - PRESSURE.
      HI  - HEAT INDEX.          WCI   - WIND CHILL INDEX.

*  THESE STATIONS ARE NOT NWS OR FAA STATIONS AND ARE NOT UNDER
   NWS QUALITY CONTROL.

LAZ038-040-048-061>063-065>067-069-230300-
SOUTHEAST LOUISIANA

CITY           SKY/WX    TMP DP  RH WIND       PRES   REMARKS
N.O. AUDUBON     N/A     67  58  72 MISG        N/A
N.O. INTL ARPT CLEAR     70  56  61 NE5       30.06R
N.O. LAKEFRONT CLEAR     73  60  63 NE12      30.06R
N.O. DOWNTOWN*   N/A     73  54  49 CALM      30.06R
SLIDELL        CLEAR     59  55  87 N5        30.06R
BATON ROUGE    CLEAR     59  55  87 CALM      30.07R
BOOTHVILLE     CLEAR     72  60  66 NE6       30.05R
BELLE CHASSE   CLEAR     59  55  87 CALM      30.06R
BOGALUSA*        N/A     59  51  74 CALM      30.09S
NEW ROADS*       N/A     61  55  78 NE3       30.08R
GONZALES*        N/A     60  60 100 CALM      30.06R
HAMMOND*       CLEAR     61  52  72 N6        30.09R
HOUMA*         CLEAR     58  55  90 SE3       30.06R
PORT FOURCHON* CLEAR     72  59  64 NE7       30.08S

$$

MSZ070-080>082-230300-
SOUTHERN MISSISSIPPI

CITY           SKY/WX    TMP DP  RH WIND       PRES   REMARKS
MCCOMB         CLEAR     63  50  62 N5        30.09R
GULFPORT       CLEAR     66  50  56 NE6       30.06R
BILOXI         CLEAR     64  52  65 NE8       30.06S
PASCAGOULA     CLEAR     60  49  66 NE6       30.07R
STENNIS ARPT*  CLEAR     64  50  59 CALM      30.07

$$

COASTAL OBSERVATIONS
LAKE AND NEARSHORE STATIONS

STATION/POSITION TIME  TEMP    WIND        PRES    WAVE
                       AIR SEA DIR/SP/G            HT/PER
                 (UTC) (F)     (DEG/KT/KT) (MB)    (FT/S)
PASCAGOULA       0200   68      20/  7/ 11 1017.5
WAVELAND YACHT   0200   70      40/ 11/ 12 1017.2
GRAND ISLE       0200   72 75   60/  5/  6 1018.0
SOUTHWEST PASS   0200   72 83              1017.4
NEW CANAL        0200   73 72   40/ 14/ 15 1018.0
SHELL BEACH      0200   72 70   50/  5/  5 1017.4

OFFSHORE STATIONS

STATION/POSITION TIME  TEMP    WIND        PRES    WAVE
                       AIR SEA DIR/SP/G            HT/PER
                 (UTC) (F)     (DEG/KT/KT) (MB)    (FT/S)
64 S DAUPHIN ISL 0135   74 79   30/ 14/ 17 1017.5    3/ 5

$$




USA.gov is the U.S. government's official web portal to all federal, state and local government web resources and services.